Miscellaneous Local Product
Issued by NWS Hastings, NE

Home | Current Version | Previous Version | Graphics & Text | Print | Product List | Glossary On
Versions: 1 2 3 4 5 6 7 8 9 10 11 12 13 14 15 16 17 18 19 20 21 22 23 24 25 26 27 28 29 30 31 32 33 34 35 36 37 38 39 40 41 42 43 44 45 46 47 48 49 50
000
AXUS43 KGID 191102
MISGRI

GID CWA HOURLY WEATHER ROUNDUP
NATIONAL WEATHER SERVICE HASTINGS NE
600 AM CDT TUE AUG 19 2014

NOTE: "FAIR" INDICATES FEW OR NO CLOUDS BELOW 12,000 FEET WITH NO
SIGNIFICANT WEATHER AND/OR OBSTRUCTIONS TO VISIBILITY.

...SOUTH CENTRAL NEBRASKA...

CITY           SKY/WX    TMP DP  RH WIND       PRES   REMARKS
GRAND ISLAND   CLEAR     67  63  87 W3        29.86R
HASTINGS       CLEAR     68  64  87 W3        29.85S
KEARNEY        CLEAR     66  64  94 CALM      29.88R
ORD            CLEAR     62  59  90 W3        29.86R
AURORA         CLEAR     66  66 100 NW6       29.84S
LEXINGTON      PTCLDY    63  62  97 CALM      29.89S FOG
HOLDREGE       PTCLDY    63  61  94 CALM      29.89R
HEBRON         CLEAR     70  66  87 CALM      29.83R

...NEBRASKA PANHANDLE...

CITY           SKY/WX    TMP DP  RH WIND       PRES   REMARKS
CHADRON        PTCLDY    59  52  77 CALM      29.91S
ALLIANCE       CLEAR     54  52  93 CALM      29.95F
SCOTTSBLUFF    CLEAR     56  54  93 E5        29.94F
SIDNEY         CLEAR     54  51  90 SE5       29.98F

...WESTERN AND NORTH CENTRAL NEBRASKA...

CITY           SKY/WX    TMP DP  RH WIND       PRES   REMARKS
VALENTINE      CLEAR     57  55  93 SW5       29.90S
AINSWORTH      CLEAR     60  57  91 W5        29.90S
ONEILL         CLEAR     62  59  91 NW6       29.87S
BROKEN BOW     CLEAR     61  59  93 CALM      29.88S
IMPERIAL       MOCLDY    62  57  83 NW6       29.93S
NORTH PLATTE   CLEAR     60  58  92 CALM      29.91R
MCCOOK         PTCLDY    58  56  93 NW3       29.90R

...EASTERN NEBRASKA...

CITY           SKY/WX    TMP DP  RH WIND       PRES   REMARKS
NORFOLK        MOCLDY    64  60  87 W6        29.83R
SO SIOUX CITY  CLEAR     63  60  90 NW5       29.79R
TEKAMAH        PTCLDY    66  62  87 N5        29.78R
COLUMBUS       PTCLDY    64  61  88 NW6       29.83S
ALBION         CLEAR     62  58  88 NW3       29.84F
OMAHA EPPLEY   MOCLDY    70  67  90 CALM      29.78R
OFFUTT AFB     MOCLDY    67  67 100 CALM      29.79R
MILLARD        MOCLDY    69  67  94 CALM      29.79R
LINCOLN        PTCLDY    69  67  93 CALM      29.81R
NEBRASKA CITY  CLOUDY    70  70  99 W3        29.80R
BEATRICE       MOCLDY    69  68  97 CALM      29.82R
FALLS CITY     CLOUDY    70  64  81 NE3       29.77F

...NORTHERN KANSAS...

CITY           SKY/WX    TMP DP  RH WIND       PRES   REMARKS
GOODLAND       CLEAR     63  56  78 S10       29.92F
HILL CITY      CLEAR     63  59  87 CALM      29.88S
NORTON         SUNNY     59  54  82 CALM      29.88R
PHILLIPSBURG   RAIN      63  63 100 NW5       29.87R
BELOIT         CLEAR     66  64  94 CALM      29.84R
HAYS           PTCLDY    66  54  63 SW5       29.87S
RUSSELL        PTCLDY    65  57  75 CALM      29.85R
CONCORDIA      MOCLDY    67  65  93 S9        29.84R
SALINA         MOCLDY    70  62  76 W3        29.83S
TOPEKA         CLOUDY    76  63  64 SW6       29.81R



USA.gov is the U.S. government's official web portal to all federal, state and local government web resources and services.